Wind_Speed
22 25 19 10 1 4 11 17 16 1 7 9 9 13 9 19 16 17 27 22 22 14 16 13 9 9 10 6 5 6 6 6 10 8 6 5 7 7 8 10 10 9 12 9
23 22 19 16 10 4 4 8 17 12 11 8 4 4 5 9 20 21 19 17 14 15 11 12 15 16 14 15 13 14 13 14 15 13 14 12 10 3 3 6 3 3 9 9
19 15 22 24 11 6 6 6 15 18 20 11 6 15 3 8 16 17 15 20 4 13 12 7 11 15 17 14 13 12 12 14 14 13 12 11 13 12 14 18 2 3 5 9
21 17 22 30 15 9 12 11 13 14 16 18 12 19 14 9 16 12 11 9 10 17 5 11 8 8 13 13 9 8 10 12 12 12 12 11 13 13 13 14 15 15 15 11
21 21 21 28 24 13 15 17 20 17 20 24 19 11 7 6 13 14 14 6 14 25 4 2 8 8 7 11 8 5 7 8 12 13 12 11 10 12 12 15 14 12 14 15
12 17 19 17 26 23 22 22 23 28 27 28 25 12 7 12 15 12 13 13 20 18 10 4 5 8 5 6 8 5 5 10 10 10 8 6 6 6 6 9 8 8 10 10
13 15 14 17 15 19 16 29 31 31 26 20 18 18 15 13 7 4 7 9 21 17 6 1 8 8 7 4 7 5 4 9 11 8 5 3 4 4 3 5 6 6 6 5
14 18 21 12 18 18 11 13 19 26 22 18 16 11 9 9 6 0 4 10 12 9 8 3 10 8 6 4 5 4 4 5 6 5 2 1 3 3 2 2 4 5 5 4
12 15 15 9 6 16 5 12 9 20 22 18 15 10 8 4 6 3 10 17 20 14 10 5 7 7 7 5 6 1 5 8 7 8 6 2 1 1 1 2 1 3 5 3
21 15 14 17 15 8 13 13 14 13 23 22 15 10 5 5 7 6 10 9 16 17 16 10 4 5 6 1 4 4 4 6 10 9 7 4 2 2 3 1 2 9 13 2
21 16 16 19 22 19 15 13 17 10 3 16 12 13 13 16 13 12 4 16 17 18 13 12 6 4 2 2 6 5 4 5 8 10 9 4 4 5 2 2 3 8 12 10
19 13 10 22 27 26 20 17 17 16 14 13 14 8 5 5 6 9 15 15 11 11 23 4 9 4 2 4 9 11 8 7 10 11 12 7 6 6 4 1 1 5 4 6
13 11 8 20 25 32 29 21 21 22 21 18 18 16 9 9 8 13 7 13 16 15 11 11 8 5 7 10 13 14 12 11 11 13 14 12 10 9 5 4 4 4 6 3
11 11 10 12 30 33 34 37 32 29 28 27 25 24 22 9 17 18 6 7 11 11 13 13 12 15 16 13 16 19 15 14 14 12 13 14 12 11 9 8 6 6 5 7
8 12 11 12 18 29 32 35 31 31 29 31 32 33 29 24 17 19 18 21 16 16 18 21 22 23 23 17 13 21 21 19 17 11 11 12 13 14 13 14 12 8 8 8
18 12 14 11 11 15 20 27 34 35 35 44 38 36 38 34 28 22 25 28 30 27 27 31 35 33 36 30 19 20 23 25 24 19 14 16 15 18 20 19 16 13 14 10
22 20 19 12 14 12 11 16 21 25 34 42 39 42 39 38 41 39 34 36 37 38 39 34 37 40 42 43 36 31 25 30 31 29 24 21 20 19 22 22 21 18 19 17
20 21 23 20 18 13 15 15 17 23 26 30 37 42 44 43 43 44 40 41 43 43 39 39 41 44 47 46 37 36 36 32 37 36 33 28 27 23 25 26 26 25 26 25
20 22 22 21 20 15 15 17 21 25 29 27 28 34 43 50 52 49 46 44 48 51 52 53 56 56 62 53 46 27 39 37 38 38 37 36 33 30 32 30 32 34 33 31
24 24 26 23 21 18 20 22 25 26 32 34 29 29 28 30 37 41 43 44 47 49 54 55 53 52 54 22 24 31 34 38 35 40 38 34 35 36 36 39 38 38 38 42
27 29 27 26 27 24 22 20 24 32 35 39 37 33 31 31 31 32 36 39 41 44 44 48 49 36 28 28 33 34 35 37 37 44 41 40 36 39 41 42 44 43 43 42
28 28 31 30 30 31 30 29 27 28 34 39 42 40 35 32 34 32 31 29 27 26 25 27 28 26 28 32 31 35 36 36 38 44 44 43 41 40 43 45 48 45 42 40
32 32 31 32 28 30 31 34 35 34 32 31 35 38 38 37 37 36 33 33 33 32 32 30 29 27 28 35 38 37 35 38 39 40 44 43 43 43 44 49 49 36 38 41
31 33 35 35 33 33 36 39 38 39 39 38 34 37 40 43 44 41 37 33 32 32 34 36 33 33 31 33 41 45 42 41 40 38 43 44 40 41 42 48 32 30 39 44
27 31 35 39 38 42 44 43 39 40 43 45 44 43 44 46 49 52 51 45 43 39 38 41 39 36 37 37 36 41 44 45 45 43 42 40 51 35 40 45 41 38 43 46
28 33 37 37 38 45 44 43 44 44 44 45 48 52 52 52 52 54 55 56 57 53 45 44 45 46 40 41 41 40 43 45 46 46 43 38 36 42 44 45 43 46 46 46
Wind_Direction
227 226 214 200 169 332 19 359 340 201 89 63 50 45 8 5 7 9 358 13 15 34 39 64 82 95 108 122 116 118 111 113 95 89 100 182 190 230 251 236 237 238 244 237
228 228 189 178 195 204 6 316 335 345 330 64 3 16 201 329 22 13 10 6 12 23 45 60 73 71 71 88 102 102 100 94 83 77 80 95 106 135 256 218 154 241 237 240
233 227 193 196 210 214 237 286 304 302 319 328 349 323 202 16 22 14 340 344 80 18 32 43 69 73 73 78 85 89 91 84 80 83 83 84 83 69 65 70 108 99 158 180
228 215 197 197 200 263 266 279 286 298 296 305 347 323 330 343 16 353 345 69 65 4 25 44 64 81 82 71 86 101 94 93 92 91 91 82 74 66 69 73 75 81 102 117
226 227 216 206 197 239 271 263 271 267 266 273 257 309 11 5 348 326 329 52 320 336 308 21 62 88 96 98 76 97 121 108 100 97 88 80 76 72 76 69 70 83 92 98
222 239 245 217 205 219 237 245 253 248 259 256 259 275 280 307 329 328 344 353 330 341 286 290 48 78 101 110 108 82 122 132 117 110 100 85 67 67 69 64 61 70 83 92
192 166 201 224 222 218 249 254 255 251 250 264 246 247 255 320 328 296 336 326 314 306 285 251 94 54 95 96 120 121 121 133 127 118 99 56 72 66 82 65 56 60 60 80
191 182 176 208 246 222 225 287 260 255 253 249 208 250 277 313 300 87 255 300 338 208 192 34 64 94 64 88 100 159 197 209 171 164 220 320 12 44 93 91 56 39 37 52
276 210 195 195 277 238 238 270 286 252 261 247 200 253 325 345 350 353 311 304 307 251 182 107 52 100 103 67 40 70 231 234 237 232 226 228 284 5 196 243 313 360 344 306
295 256 236 215 229 192 215 239 263 266 255 246 239 237 287 329 2 328 318 301 283 281 211 141 106 101 142 121 355 358 309 258 241 248 246 243 210 140 166 197 96 30 21 348
268 272 207 219 233 213 210 232 245 237 264 253 239 240 286 308 280 305 279 294 296 263 240 142 131 162 139 191 269 275 313 295 262 253 259 251 208 168 181 201 12 24 37 35
267 265 217 212 236 234 230 243 248 239 215 238 224 231 240 178 305 305 295 304 320 298 251 160 143 171 313 258 259 259 266 289 278 270 265 254 221 210 208 249 353 13 11 42
294 274 235 205 218 230 224 224 235 235 239 232 233 222 245 262 252 264 232 275 295 315 297 307 252 215 236 251 264 258 259 267 286 281 270 265 246 238 237 232 252 286 314 359
297 295 269 222 212 229 230 233 232 235 242 239 242 240 241 241 249 247 202 235 263 266 266 257 249 279 287 266 282 264 253 263 267 290 274 269 248 253 268 285 276 262 263 299
296 296 292 278 251 238 240 237 242 234 236 240 234 247 243 241 236 240 239 244 237 243 242 251 250 237 225 237 264 247 250 251 257 264 270 266 248 266 275 278 280 264 266 265
290 296 299 297 280 257 249 252 247 244 244 243 248 248 243 244 248 244 248 249 252 245 250 263 268 269 265 262 240 227 233 246 253 247 246 256 256 268 270 272 271 276 264 267
281 284 286 293 282 282 274 247 242 239 237 239 244 248 246 242 248 255 255 258 262 263 259 265 266 264 268 263 261 257 262 237 241 247 242 248 252 256 261 265 266 267 260 269
277 275 276 274 275 282 269 270 260 252 247 242 242 240 241 239 245 247 251 256 259 265 273 272 271 274 260 253 252 255 262 255 234 238 242 243 247 253 259 262 264 263 260 254
283 279 273 269 267 264 264 250 246 249 253 256 253 246 242 244 246 244 249 252 255 260 265 267 267 271 265 274 260 259 259 263 239 237 238 243 245 245 250 255 261 260 259 253
274 272 272 268 266 265 250 251 256 249 255 265 260 264 267 263 252 249 247 250 249 258 264 268 273 280 285 284 265 256 252 253 239 232 236 237 239 238 244 247 253 260 260 256
278 281 283 282 284 281 273 261 257 250 253 263 268 265 268 271 270 268 271 269 269 266 270 269 271 277 271 266 256 250 245 243 237 227 232 238 241 242 241 245 251 255 261 276
265 267 270 279 282 279 290 290 279 266 262 265 272 277 275 274 276 278 273 267 266 270 272 272 269 270 251 241 241 247 250 245 244 236 234 242 246 246 245 241 245 250 260 267
265 266 267 270 273 277 280 281 280 276 269 269 276 280 279 276 273 271 267 272 275 276 276 273 273 269 256 242 242 242 246 248 248 246 240 243 247 247 246 244 241 241 254 263
266 275 277 276 272 270 268 269 270 274 276 274 271 273 276 280 282 280 275 271 268 270 274 270 265 264 263 254 245 246 243 243 245 249 240 243 243 253 261 267 270 262 259 263
272 266 268 268 271 266 263 266 268 269 273 277 276 275 276 278 283 285 284 278 277 282 280 271 269 261 261 262 254 248 243 240 244 253 261 256 234 242 253 256 263 261 264 269
275 275 269 261 258 262 263 264 268 270 270 269 272 275 276 275 275 279 283 284 284 283 282 277 266 260 255 255 257 257 251 248 245 250 254 258 257 250 254 255 261 260 263 265
Height
5915 5916 5921 5921 5922 5922 5924 5925 5925 5922 5927 5926 5925 5921 5918 5918 5918 5922 5923 5921 5919 5916 5915 5908 5905 5904 5904 5905 5905 5904 5907 5908 5906 5904 5903 5905 5908 5907 5907 5906 5906 5908 5910 5912
5910 5912 5921 5921 5919 5919 5921 5923 5923 5924 5924 5921 5917 5920 5917 5918 5920 5921 5925 5923 5921 5920 5917 5914 5907 5905 5903 5905 5905 5905 5907 5907 5905 5905 5904 5905 5906 5906 5905 5905 5904 5904 5907 5910
5907 5912 5915 5918 5916 5917 5919 5920 5922 5923 5921 5921 5914 5915 5919 5918 5920 5923 5925 5921 5920 5922 5920 5917 5911 5908 5906 5906 5906 5907 5907 5906 5908 5908 5908 5909 5908 5908 5906 5904 5905 5904 5905 5909
5904 5907 5909 5912 5912 5915 5914 5917 5919 5920 5920 5917 5915 5916 5917 5917 5919 5923 5923 5919 5919 5922 5920 5919 5913 5911 5908 5908 5909 5909 5909 5910 5911 5911 5912 5912 5911 5910 5909 5908 5907 5907 5907 5909
5901 5902 5904 5907 5910 5909 5910 5912 5914 5916 5917 5917 5919 5919 5916 5917 5919 5920 5920 5919 5920 5922 5919 5918 5914 5911 5912 5910 5910 5911 5911 5912 5912 5912 5913 5914 5913 5912 5912 5909 5909 5910 5910 5911
5901 5902 5904 5905 5906 5906 5907 5909 5910 5911 5913 5914 5917 5917 5917 5916 5916 5916 5914 5914 5917 5920 5919 5917 5914 5910 5911 5911 5910 5911 5913 5913 5912 5913 5914 5914 5914 5913 5913 5911 5912 5912 5911 5911
5895 5897 5898 5900 5901 5903 5904 5903 5903 5906 5908 5909 5911 5911 5912 5912 5911 5912 5912 5914 5917 5916 5919 5917 5912 5912 5910 5911 5911 5912 5913 5913 5911 5912 5913 5914 5914 5913 5912 5912 5912 5912 5912 5912
5891 5893 5894 5896 5896 5896 5898 5899 5898 5898 5901 5904 5907 5907 5909 5908 5907 5907 5910 5914 5914 5913 5915 5916 5912 5910 5909 5910 5911 5912 5913 5914 5914 5913 5914 5914 5913 5912 5912 5913 5913 5913 5912 5912
5891 5893 5893 5894 5896 5894 5896 5895 5895 5895 5897 5900 5904 5904 5905 5903 5902 5904 5909 5910 5907 5910 5909 5910 5912 5909 5908 5909 5909 5910 5912 5913 5914 5914 5913 5913 5913 5912 5913 5913 5913 5912 5911 5910
5885 5886 5889 5892 5892 5891 5890 5893 5893 5893 5894 5896 5900 5903 5901 5897 5898 5901 5903 5905 5904 5907 5904 5905 5909 5907 5908 5909 5908 5909 5910 5911 5911 5911 5911 5912 5913 5912 5912 5912 5911 5911 5909 5907
5880 5879 5885 5885 5886 5888 5887 5887 5888 5889 5890 5891 5895 5897 5893 5893 5894 5896 5898 5896 5899 5899 5898 5903 5904 5905 5906 5906 5909 5910 5909 5909 5909 5909 5909 5910 5912 5911 5911 5911 5911 5910 5908 5905
5875 5875 5876 5878 5880 5882 5883 5882 5882 5884 5885 5886 5889 5891 5886 5886 5889 5892 5891 5891 5893 5894 5899 5898 5902 5904 5903 5905 5908 5909 5908 5908 5907 5908 5909 5909 5909 5910 5910 5909 5909 5908 5907 5907
5871 5870 5872 5873 5877 5876 5877 5878 5878 5880 5881 5881 5883 5887 5883 5885 5887 5890 5890 5888 5890 5892 5892 5897 5901 5901 5903 5905 5907 5907 5906 5905 5905 5906 5906 5907 5907 5906 5907 5907 5906 5905 5904 5903
5868 5867 5868 5869 5868 5868 5870 5873 5875 5876 5877 5878 5878 5880 5882 5882 5883 5884 5886 5886 5880 5881 5882 5883 5884 5891 5897 5902 5904 5905 5903 5903 5902 5903 5904 5904 5903 5903 5902 5902 5902 5902 5900 5899
5867 5864 5863 5865 5865 5863 5863 5868 5871 5871 5872 5872 5875 5870 5877 5878 5878 5879 5880 5881 5882 5880 5880 5880 5882 5883 5881 5886 5896 5901 5900 5899 5899 5900 5900 5901 5900 5900 5900 5899 5898 5897 5896 5895
5861 5861 5860 5860 5860 5859 5860 5862 5864 5865 5865 5865 5864 5865 5870 5871 5873 5873 5874 5875 5877 5880 5880 5877 5876 5876 5879 5881 5883 5891 5895 5897 5896 5895 5896 5895 5896 5896 5895 5894 5894 5893 5891 5890
5857 5857 5856 5857 5855 5856 5856 5854 5853 5852 5852 5854 5856 5858 5862 5863 5865 5866 5867 5868 5868 5870 5873 5875 5876 5874 5874 5873 5875 5880 5886 5889 5889 5890 5889 5889 5889 5890 5890 5888 5888 5888 5886 5884
5853 5852 5851 5851 5850 5852 5850 5848 5847 5845 5845 5845 5845 5849 5853 5855 5858 5858 5858 5858 5858 5858 5859 5860 5863 5867 5866 5868 5866 5868 5874 5877 5881 5881 5881 5882 5882 5884 5884 5882 5881 5880 5878 5877
5846 5846 5845 5845 5844 5847 5845 5843 5841 5840 5836 5837 5838 5839 5841 5844 5847 5849 5850 5850 5852 5850 5849 5849 5849 5849 5851 5850 5849 5853 5861 5867 5869 5873 5873 5873 5875 5875 5875 5875 5873 5871 5870 5870
5840 5840 5839 5838 5838 5840 5838 5836 5835 5834 5829 5828 5831 5833 5834 5835 5836 5838 5841 5842 5843 5842 5841 5840 5840 5841 5840 5836 5837 5842 5848 5853 5858 5862 5864 5864 5864 5865 5866 5864 5863 5863 5861 5858
5833 5830 5829 5829 5828 5829 5829 5832 5832 5828 5827 5821 5824 5827 5828 5827 5828 5829 5831 5834 5834 5834 5833 5832 5832 5831 5828 5829 5831 5834 5837 5842 5845 5847 5851 5853 5853 5853 5855 5856 5855 5853 5853 5853
5825 5824 5822 5821 5822 5821 5821 5820 5823 5822 5819 5817 5815 5816 5819 5819 5818 5819 5821 5821 5824 5824 5822 5820 5820 5819 5818 5821 5822 5826 5828 5832 5835 5838 5838 5840 5840 5843 5843 5844 5840 5842 5842 5842
5814 5815 5816 5816 5817 5814 5813 5810 5808 5808 5809 5810 5808 5805 5805 5806 5806 5807 5808 5809 5809 5811 5811 5811 5810 5810 5810 5812 5813 5815 5817 5820 5823 5825 5826 5828 5828 5829 5829 5823 5819 5826 5830 5832
5807 5806 5804 5804 5806 5805 5802 5798 5797 5794 5794 5796 5798 5796 5793 5791 5791 5793 5794 5795 5797 5799 5799 5800 5801 5800 5800 5801 5802 5804 5806 5807 5809 5798 5810 5816 5816 5819 5818 5808 5792 5809 5819 5821
5801 5799 5796 5791 5793 5789 5785 5786 5789 5788 5785 5783 5783 5783 5782 5781 5778 5776 5777 5782 5783 5785 5787 5785 5788 5791 5790 5789 5790 5792 5793 5795 5797 5799 5797 5802 5804 5806 5810 5807 5807 5810 5812 5812
5788 5785 5781 5780 5780 5774 5776 5776 5774 5774 5774 5773 5771 5768 5768 5770 5770 5766 5762 5761 5761 5766 5771 5770 5770 5771 5775 5776 5777 5779 5780 5783 5785 5787 5789 5791 5794 5798 5800 5801 5802 5802 5804 5804